Location: Milton Keynes
(52.0316°N, 0.7531°W)
Time: 17:05:21
(UTC+00:00)

Envisat - Pass Details

Date: 04 December 2022
Orbit: 763 x 765 km, 98.2° (Epoch: 06 February)

Event Time Altitude Azimuth Distance (km) Brightness Sun altitude
Rises 03:41:20 0° 20° (NNE) 3,247 6.6 -37.4°
Reaches altitude 10° 03:43:50 10° 29° (NNE) 2,316 5.9 -37.1°
Enters shadow 03:46:06 23° 47° (NE) 1,578 5.0 -36.7°
